Weather History for KBTV - April, 2014

Change the Weather History Date:

Saturday, April 5, 2014

  Actual Average Record
Temperature  
Mean Temperature 40 °F 40 °F  
Max Temperature 45 °F 49 °F 75 °F (1928)
Min Temperature 35 °F 31 °F 3 °F (1964)
Degree Days  
Heating Degree Days 25 25  
Month to date heating degree days 133 131  
Since 1 July heating degree days 6920 6595  
Cooling Degree Days 0 0  
Month to date cooling degree days 0 0  
Year to date cooling degree days 0 0  
Moisture  
Dew Point 30 °F    
Average Humidity 67    
Maximum Humidity 92    
Minimum Humidity 41    
Precipitation  
Precipitation T in 0.09 in 1.12 in (1920)
Month to date precipitation 0.09 0.44  
Year to date precipitation 6.25 6.48  
Snow  
Snow 0.00 in 0.20 in 4.50 in (1911)
Month to date snowfall 0.0 1.2  
Since 1 July snowfall 83.7 77.8  
Snow Depth 0.00 in    
Sea Level Pressure  
Sea Level Pressure 29.75 in    
Wind  
Wind Speed 11 mph (SSW)    
Max Wind Speed 22 mph    
Max Gust Speed 31 mph    
Visibility 10 miles    
Events Rain    
T = Trace of Precipitation, MM = Missing Value Source: NWS Daily Summary

Daily Weather History Graph

Daily Weather History Graph

Search for Another Location

Airport or City:

Trip Planner

Search our weather history database for the weather conditions in past years. The results will help you decide how hot, cold, wet, or windy it might be!

Date:

Astronomy

Apr. 05, 2014 Rise Set
Actual Time 6:26 AM EDT 7:24 PM EDT
Civil Twilight 5:56 AM EDT 7:54 PM EDT
Nautical Twilight 5:21 AM EDT 8:30 PM EDT
Astronomical Twilight 4:44 AM EDT 9:07 PM EDT
Moon 10:23 AM EDT (4/5) 12:40 AM EDT (4/5)
Length of Visible Light 13h 57m
Length of Day
12h 58m
Waxing Crescent, 34% of the Moon is Illuminated
Apr 5
Waxing Crescent
Apr 7
First Quarter
Apr 15
Full
Apr 22
Last Quarter
Apr 29
New

Hourly Weather History & Observations

Time (EDT) Temp. Windchill Dew Point Humidity Pressure Visibility Wind Dir Wind Speed Gust Speed Precip Events Conditions
12:18 AM 39.9 °F 32.5 °F 33.1 °F 77% 29.74 in 10.0 mi SSE 12.7 mph 23.0 mph N/A   Overcast
12:35 AM 39.9 °F 32.1 °F 32.0 °F 73% 29.73 in 10.0 mi South 13.8 mph - N/A   Overcast
12:54 AM 39.0 °F 31.4 °F 32.0 °F 76% 29.73 in 10.0 mi South 12.7 mph - N/A   Overcast
1:54 AM 37.9 °F 29.2 °F 32.0 °F 79% 29.71 in 10.0 mi South 15.0 mph 24.2 mph 0.00 in   Overcast
2:54 AM 37.9 °F 30.5 °F 32.0 °F 79% 29.69 in 10.0 mi SSE 11.5 mph - N/A   Overcast
3:25 AM 37.9 °F 33.5 °F 33.1 °F 83% 29.68 in 10.0 mi SSE 5.8 mph - N/A   Overcast
3:54 AM 37.9 °F 31.5 °F 32.0 °F 79% 29.69 in 10.0 mi South 9.2 mph - N/A   Overcast
4:54 AM 37.9 °F 32.7 °F 33.1 °F 83% 29.69 in 10.0 mi South 6.9 mph - N/A   Overcast
5:54 AM 37.0 °F 32.4 °F 34.0 °F 89% 29.70 in 10.0 mi South 5.8 mph - 0.00 in   Overcast
6:02 AM 37.0 °F 31.0 °F 34.0 °F 89% 29.69 in 10.0 mi SSE 8.1 mph - 0.00 in Rain Light Rain
6:28 AM 37.0 °F 30.4 °F 34.0 °F 89% 29.68 in 6.0 mi SSE 9.2 mph - 0.00 in   Overcast
6:38 AM 37.0 °F 31.0 °F 34.0 °F 89% 29.69 in 6.0 mi SSE 8.1 mph - 0.00 in   Overcast
6:54 AM 37.9 °F 32.7 °F 34.0 °F 86% 29.70 in 10.0 mi SSE 6.9 mph - 0.00 in   Overcast
7:13 AM 37.9 °F 32.1 °F 34.0 °F 86% 29.70 in 10.0 mi South 8.1 mph - 0.00 in Rain Light Rain
7:54 AM 37.0 °F 34.5 °F 35.1 °F 93% 29.71 in 10.0 mi SSE 3.5 mph - 0.00 in   Overcast
8:09 AM 37.9 °F 35.5 °F 35.1 °F 89% 29.70 in 10.0 mi SE 3.5 mph - N/A   Overcast
8:29 AM 37.9 °F 35.5 °F 35.1 °F 89% 29.70 in 10.0 mi SSE 3.5 mph - N/A   Overcast
8:39 AM 37.9 °F 32.7 °F 34.0 °F 86% 29.70 in 10.0 mi South 6.9 mph - N/A   Overcast
8:54 AM 39.0 °F 34.0 °F 35.1 °F 86% 29.71 in 10.0 mi South 6.9 mph - N/A   Overcast
9:14 AM 39.0 °F 33.4 °F 35.1 °F 86% 29.70 in 10.0 mi South 8.1 mph - N/A   Overcast
9:54 AM 39.9 °F 33.9 °F 35.1 °F 83% 29.71 in 10.0 mi SSW 9.2 mph - N/A   Overcast
10:33 AM 41.0 °F 35.2 °F 36.0 °F 82% 29.70 in 10.0 mi SSW 9.2 mph - N/A   Overcast
10:41 AM 41.0 °F 34.7 °F 36.0 °F 82% 29.70 in 10.0 mi SSW 10.4 mph - N/A   Overcast
10:54 AM 42.1 °F 36.6 °F 36.0 °F 79% 29.70 in 10.0 mi SSW 9.2 mph - N/A   Overcast
11:54 AM 43.0 °F 37.2 °F 35.1 °F 74% 29.70 in 10.0 mi SSW 10.4 mph - N/A   Overcast
12:54 PM 44.1 °F 38.6 °F 28.9 °F 55% 29.70 in 10.0 mi West 10.4 mph - N/A   Overcast
1:54 PM 43.0 °F 35.1 °F 25.0 °F 49% 29.70 in 10.0 mi WSW 17.3 mph 26.5 mph N/A   Overcast
2:54 PM 44.1 °F 37.1 °F 23.0 °F 43% 29.71 in 10.0 mi WSW 15.0 mph 23.0 mph N/A   Overcast
3:54 PM 42.1 °F 33.6 °F 23.0 °F 47% 29.75 in 10.0 mi West 18.4 mph 24.2 mph N/A   Overcast
4:54 PM 39.9 °F 30.8 °F 23.0 °F 51% 29.78 in 10.0 mi West 18.4 mph 26.5 mph N/A   Overcast
5:54 PM 37.0 °F 28.1 °F 23.0 °F 57% 29.83 in 10.0 mi WSW 15.0 mph - N/A   Overcast
6:54 PM 36.0 °F 27.1 °F 24.1 °F 62% 29.86 in 10.0 mi West 13.8 mph - N/A   Overcast
7:54 PM 36.0 °F 28.0 °F 24.1 °F 62% 29.88 in 10.0 mi WSW 11.5 mph - N/A   Overcast
8:54 PM 36.0 °F 28.0 °F 21.9 °F 57% 29.92 in 10.0 mi West 11.5 mph - N/A   Overcast
9:54 PM 37.0 °F 28.5 °F 21.9 °F 54% 29.94 in 10.0 mi West 13.8 mph 24.2 mph N/A   Overcast
10:54 PM 36.0 °F 27.5 °F 23.0 °F 59% 29.96 in 10.0 mi West 12.7 mph - N/A   Overcast
11:54 PM 36.0 °F 28.5 °F 23.0 °F 59% 29.98 in 10.0 mi WNW 10.4 mph - N/A   Overcast